Regional Weather Roundup
Issued by NWS

Home | Current Version | Previous Version | Text Only | Print | Product List | Glossary On
Versions: 1 2 3 4 5 6 7 8 9 10 11 12 13 14 15 16 17 18 19 20 21 22 23 24 25 26 27 28
000
ASUS46 KSEW 110410
RWRWA

WASHINGTON REGIONAL WEATHER ROUNDUP
NATIONAL WEATHER SERVICE SEATTLE WA
800 PM PST SUN DEC 10 2017

NOTE:"FAIR" INDICATES FEW OR NO CLOUDS BELOW 12,000 FEET WITH NO
SIGNIFICANT WEATHER AND/OR OBSTRUCTIONS TO VISIBILITY.

WAZ507-509-555>559-110500-
SEATTLE, TACOMA, EVERETT, AND VICINITY

CITY           SKY/WX    TMP DP  RH WIND       PRES   REMARKS
EVERETT        PTCLDY    41  36  82 N6        30.32S
BOEING FIELD   CLEAR     37  31  78 CALM      30.32F
RENTON         CLEAR     35  32  88 CALM      30.32S
SEATAC AIRPORT CLEAR     41  28  60 N13       30.31S
JBLM-MCCHORD   CLEAR     28  28 100 S3        30.31S
PUYALLUP       MOCLDY    30  30 100 CALM      30.31R
BREMERTON      CLEAR     41  36  82 NE9       30.31S
JBLM-FT LEWIS  CLEAR     30  30 100 CALM      30.31R
TACOMA NARROWS CLEAR     37  36  96 CALM      30.31S
$$

WAZ001-503-506-510-514-515-110500-
NORTH INTERIOR

CITY           SKY/WX    TMP DP  RH WIND       PRES   REMARKS
BELLINGHAM     PTCLDY    34  34 100 CALM      30.34R
FRIDAY HARBOR  CLEAR     39  38  96 VRB3      30.35R
EASTSOUND      MOCLDY    43  43 100 NW5       30.36R
PORT ANGELES   CLEAR     33  33 100 SE5       30.33F
EDIZ HOOK      FAIR      41  39  91 CALM      30.34S
PORT TOWNSEND  FOG       30  30 100 CALM      30.35R VSB 1/4
NAS WHIDBEY    NOT AVBL
ARLINGTON      FOG       30  28  92 NW5       30.34S VSB 1/2
BURLINGTON     FOG       37  37 100 NW5       30.35R VSB 1/4
$$

WAZ020-022-039-040-504-511-512-110500-
SOUTHWEST INTERIOR

CITY           SKY/WX    TMP DP  RH WIND       PRES   REMARKS
SHELTON        CLEAR     30  29  96 CALM      30.30R
OLYMPIA        CLEAR     29  29 100 CALM      30.32S
CHEHALIS       CLOUDY    30  32 100 CALM      30.32S
KELSO          CLEAR     33  26  75 CALM      30.34S
VANCOUVER      CLEAR     37  25  61 CALM      30.35S
SCAPPOOSE, OR  CLEAR     32  26  78 SW8       30.35S
PORTLAND, OR   PTCLDY    38  25  59 E21       30.35S
$$

WAZ021-516-517-110500-
WASHINGTON COAST

CITY           SKY/WX    TMP DP  RH WIND       PRES   REMARKS
FORKS          CLEAR     34  31  88 CALM      30.25S
HOQUIAM        CLEAR     42  33  70 E10       30.27R
ASTORIA, OR    CLEAR     42  29  59 E8        30.23R
$$

WAZ019-023-024-040-567>569-110500-
CASCADE MOUNTAINS AND COLUMBIA GORGE

CITY           SKY/WX    TMP DP  RH WIND       PRES   REMARKS
STAMPEDE PASS  FOG       19  17  92 N10G22    30.40S VSB 1/2 WCI   7
TROUTDALE, OR  CLEAR     38  24  57 E29G41    30.36S
HOOD RIVER, OR CLOUDY    32  27  80 E7        30.67S
THE DALLES, OR CLOUDY    34  26  72 SE8       30.70S
$$

WAZ026-027-041>044-520-521-110500-
EAST SLOPES

CITY           SKY/WX    TMP DP  RH WIND       PRES   REMARKS
OMAK           CLOUDY    30  28  92 CALM      30.67R
WENATCHEE      CLOUDY    30  23  75 CALM      30.66R
ELLENSBURG       N/A    N/A N/A N/A MISG      30.63R
YAKIMA         CLOUDY    33  25  72 CALM      30.67S
SUNNYSIDE ARPT CLOUDY    29  25  82 CALM      30.69S
YAKIMA TC      CLOUDY    29  23  79 CALM      30.63R
$$

WAZ028-034-035-110500-
COLUMBIA BASIN

CITY           SKY/WX    TMP DP  RH WIND       PRES   REMARKS
EPHRATA        CLOUDY    30  24  78 CALM      30.65S
MOSES LAKE     CLOUDY    30  27  88 NW3       30.66S
PASCO          CLOUDY    31  27  85 N3        30.71S
RICHLAND ARPT  CLOUDY    32  28  86 NW3       30.71S
HERMISTON, OR  CLOUDY    31  26  82 CALM      30.68S
$$

WAZ036>038-110500-
NORTHEAST WASHINGTON

CITY           SKY/WX    TMP DP  RH WIND       PRES   REMARKS
SPOKANE GEIGER CLOUDY    26  24  92 NE6       30.59S
SPOKANE FELTS  CLOUDY    30  24  78 CALM      30.62S
FAIRCHILD AFB  CLOUDY    24  24 100 NE7       30.57F
COEURDALENE,ID CLOUDY    28  24  85 NE6       30.60S
DEER PARK      CLOUDY    24  22  91 N7        30.61S
$$

WAZ029>033-110500-
SOUTHEAST WASHINGTON

CITY           SKY/WX    TMP DP  RH WIND       PRES   REMARKS
PULLMAN        CLOUDY    27  24  89 N3        30.58S
LEWISTON, ID   CLEAR     26  23  88 SE3       30.62F
WALLA WALLA    CLOUDY    29  24  82 E6        30.65S
PENDLETON, OR  CLOUDY    27  24  89 NW6       30.62S
$$




USA.gov is the U.S. government's official web portal to all federal, state and local government web resources and services.